183  
ASUS41 KALY 230210  
RWRALY  
 
NEW YORK STATE HOURLY WEATHER ROUNDUP  
NATIONAL WEATHER SERVICE ALBANY NY  
1000 PM EDT THU AUG 22 2019  
 
NOTE: "FAIR" INDICATES FEW OR NO CLOUDS BELOW 12,000 FEET WITH NO  
SIGNIFICANT WEATHER AND/OR NO S TO VISIBILITY
.  
 
NYZ032-033-038>043-046>054-057>066-NYZ062>081-082-084-230300-  
EAST  
 
 
CITY SKY/WX TMP DP RH WIND PRES REMARKS
 
ALBANY FAIR 70 53 54 NW10 29.93R  
GLENS FALLS FAIR 67 53 61 W3 29.90R  
POUGHKEEPSIE CLOUDY 74 72 93 SE3 29.88S  
NEWBURGH MOCLDY 75 75 100 CALM 29.91S  
MONTGOMERY MOCLDY 71 71 100 CALM 29.90S  
WHITE PLAINS MOCLDY 73 71 93 CALM 29.92S  
ISLIP TSTM 71 68 90 W32G47 29.92R FOG  
NEW YORK CITY CLOUDY 75 68 78 NW5 29.91S  
CENTRAL PARK HVY RAIN 71 70 96 VRB7 29.96R VSB 1  

 
 
NYZ005>009-017-018-044>046-055-056-230300-  
CENTRAL  
 
 
CITY SKY/WX TMP DP RH WIND PRES REMARKS
 
FULTON FAIR 61 53 75 SW3 29.96R  
SYRACUSE FAIR 65 55 70 SW3 29.96R  
ROME FAIR 58 54 86 N3 29.96R  
ELMIRA FAIR 63 58 83 CALM 29.99R  
BINGHAMTON FAIR 63 54 72 N6 29.99R  
MONTICELLO MOCLDY 68 63 84 W3 29.97S  

 
 
NYZ026>034-041>043-087-230300-  
NORTH  
 
 
CITY SKY/WX TMP DP RH WIND PRES REMARKS
 
WATERTOWN MOCLDY 64 58 80 S5 29.92S  
FORT DRUM NOT AVBL  
OGDENSBURG FAIR 66 52 59 NW5 29.90R  
MASSENA MOCLDY 65 53 65 W5 29.91R  
SARANAC LAKE MOCLDY 53 51 93 SW5 29.94R  
PLATTSBURGH FAIR 63 55 75 W3 29.88R  

 
 
NYZ001>004-010>016-019>021-085-230300-  
WEST  
 
 
CITY SKY/WX TMP DP RH WIND PRES REMARKS
 
NIAGARA FALLS FAIR 64 52 64 N6 29.98R  
BUFFALO FAIR 67 52 58 W5 29.98R  
DUNKIRK FAIR 63 57 81 S7 30.00R  
JAMESTOWN FAIR 60 55 83 W6 30.04R  
WELLSVILLE FAIR 55 53 93 W5 30.05R  
ROCHESTER FAIR 61 55 81 W3 29.98R  
PENN YAN FAIR 61 55 81 S3 30.00R  

 
 
KEY  
WCI = WIND CHILL INDEX  
VSB = VISIBILITY  
HX = HEAT INDEX  

 
 
 
CLICK HERE TO GO TO PREVIOUS BULLETINS.

The Nexlab NY Page
The Nexlab VT Page
The Nexlab MA Page
The Nexlab CT Page Main Text Page